This is the latest recevied weather packets stored in our database for station/object OE-11361. If no packets are shown the sender has not sent any weather packets the latest 10 day(s).
| Time | Temp. | Humidity | Pressure | Rain* | Wind** | Luminosity | Snow |
|---|---|---|---|---|---|---|---|
| 1787648704 | 17.78° C | 81% | 1010.3 hPa | 0 mm | - | 103 W/m² | - |
| 1787648104 | 17.78° C | 81% | 1010.1 hPa | 0 mm | - | 117 W/m² | - |
| 1787647276 | 17.22° C | 80% | 1009.9 hPa | 0 mm | - | 117 W/m² | - |
| 1787646904 | 17.22° C | 80% | 1009.9 hPa | 0 mm | - | 103 W/m² | - |
| 1787646304 | 17.22° C | 81% | 1009.6 hPa | 0 mm | - | 96 W/m² | - |
| 1787645476 | 17.22° C | 83% | 1009.5 hPa | 0 mm | - | 90 W/m² | - |
| 1787645104 | 17.22° C | 83% | 1009.4 hPa | 0 mm | - | 90 W/m² | - |
| 1787644504 | 16.67° C | 82% | 1009.4 hPa | 0 mm | - | 90 W/m² | - |
| 1787643677 | 16.67° C | 84% | 1009.4 hPa | 0 mm | - | 83 W/m² | - |
| 1787643304 | 16.67° C | 86% | 1009.3 hPa | 0 mm | - | 90 W/m² | - |
| 1787642704 | 16.67° C | 86% | 1009.2 hPa | 0 mm | - | 96 W/m² | - |
| 1787641877 | 16.67° C | 87% | 1009.2 hPa | 0 mm | - | 103 W/m² | - |
| 1787641503 | 16.67° C | 86% | 1009.1 hPa | 0 mm | - | 117 W/m² | - |
| 1787640903 | 16.11° C | 88% | 1009.2 hPa | 0 mm | - | 110 W/m² | - |
| 1787640077 | 16.11° C | 88% | 1009.2 hPa | 0 mm | - | 103 W/m² | - |
| 1787639703 | 15.56° C | 88% | 1009.3 hPa | 0 mm | - | 90 W/m² | - |
| 1787639104 | 15.56° C | 89% | 1009.3 hPa | 0 mm | - | 83 W/m² | - |
| 1787638276 | 15° C | 90% | 1009.5 hPa | 0 mm | - | 76 W/m² | - |
| 1787637904 | 15° C | 90% | 1009.7 hPa | 0 mm | - | 62 W/m² | - |
| 1787637304 | 15° C | 90% | 1009.6 hPa | 0 mm | - | 55 W/m² | - |
| 1787636476 | 14.44° C | 92% | 1009.7 hPa | 0 mm | - | 55 W/m² | - |
| 1787636103 | 14.44° C | 92% | 1009.8 hPa | 0 mm | - | 48 W/m² | - |
| 1787635503 | 13.89° C | 93% | 1009.9 hPa | 0 mm | - | 41 W/m² | - |
| 1787634677 | 13.89° C | 94% | 1010.1 hPa | 0 mm | - | 41 W/m² | - |
| 1787634304 | 13.89° C | 93% | 1010 hPa | 0 mm | - | 28 W/m² | - |
* Rain latest hour (hover to see other rain measurements)
** Current wind speed in m/s (hover to see current wind gust speed)